User: anonymous   Login
Location: Unspecified
(0.0000°N, 0.0000°E)
Time: 01:09:00
(UTC+00:00)
Language:

USA 198 - Orbit

View from above orbital plane
View from above orbital plane
View from above satellite
View from above satellite

Ground track
Ground track

The orbit data is extracted from the following two-line orbital elements,

1 32378U 07060A   17279.49957944 0.00000000  00000-0  00000-0 0    06
2 32378  64.0634 196.9876 6991262 266.0341  18.5256  2.00598500    07
Epoch (UTC): 06 October 2017 11:59:23
Eccentricity: 0.6991262
inclination: 64.0634°
perigee height: 1612 km
apogee height: 38745 km
right ascension of ascending node: 196.9876°
argument of perigee: 266.0341°
revolutions per day: 2.00598500
mean anomaly at epoch: 18.5256°
orbit number at epoch: 0

The dashed part of the orbit path shows where the satellite is in the earth's shadow,  

DLR